星链-5753 (STARLINK-5753 )

导读 | 豆包AI

STARLINK-5753是美国SpaceX公司星链(Starlink)星座中的一颗卫星,于2023年2月12日发射,属于星链第二代部署阶段的卫星。星链项目旨在构建全球低轨卫星互联网系统,提供覆盖全球的高速宽带服务,该卫星运行于近地轨道,是SpaceX大规模卫星星座部署的组成部分,助力实现全球范围内的宽带互联与各类场景通信服务扩展。

基本信息
目录编号:
55581
目录名称:
STARLINK-5753
国际标识:
2023-020N
轨道中心:
EARTH
卫星名称:
星链-5753
卫星全名:
星链-5753 (STARLINK-5753 )
卫星状态:
在轨 (已飞行1173 天)
发射日期:
2023-02-12 UTC
国别 :
美国 (US)
星等 :
--
轨道信息
数据来源 国际轨道数据
星历时间: 2026-04-30T12:00:01+0800
7小时前
查看轨道信息
半长轴: 6861.228km
偏心率: 0.0001461
轨道倾角: 43.002°
近地点辐角 259.261°
升交点赤经 81.374°
平近点角 140.902°
近地点: 482.088km
远地点: 484.094km
周期: 94.268分钟
每日圈数: 15.275662
详细信息
固有亮度:
5
最大亮度:
2.5
卫星平台:
Starlink v1.5
覆盖范围:
全球
运营商:
太空探索技术公司
运营商所在国:
美国
制造商(研发单位):
太空探索技术公司
制造商所在国:
美国
使用方式:
暂无
卫星简介
星链(Starlink)计划是由太空探索技术公司(SpaceX)提出的一个巨型低轨卫星互联网星座项目,计划在2019年至2024年间在太空搭建由约1.2万颗卫星组成的“星链”网络,其中1584颗将部署在地球上空550千米处的近地轨道,并从2020年开始工作。该卫星仍在工作。
2D轨道图
3D轨道图
轨道高度分析图
轨道倾角分析图
轨道综合分析图
查看轨道综合分析图